Baker, OR

8:29 PM PST on January 23, 2018 (GMT -0800)
Baker City Municipal

Weather History for KBKE - October, 2012

Change the Weather History Date:

Saturday, October 27, 2012

  Actual Average Record
Temperature  
Mean Temperature 33 °F 40 °F  
Max Temperature 41 °F 55 °F 76 °F (1944)
Min Temperature 24 °F 26 °F 12 °F (2007)
Degree Days  
Heating Degree Days 32 25  
Month to date heating degree days 610 535  
Since 1 July heating degree days 901 977  
Cooling Degree Days 0 0  
Month to date cooling degree days 0 0  
Year to date cooling degree days 184 169  
Moisture  
Dew Point 30 °F    
Average Humidity 93    
Maximum Humidity 100    
Minimum Humidity 85    
Precipitation  
Precipitation 0.17 in 0.02 in 0.33 in (1999)
Month to date precipitation 0.57 0.53  
Year to date precipitation 6.80 8.15  
Sea Level Pressure  
Sea Level Pressure 30.15 in    
Wind  
Wind Speed 6 mph (East)    
Max Wind Speed 23 mph    
Max Gust Speed 28 mph    
Visibility 5 miles    
Events Fog , Rain , Snow    
T = Trace of Precipitation, MM = Missing Value Source: NWS Daily Summary

Daily Weather History Graph

Daily Weather History Graph

Search for Another Location

Airport or City:

Trip Planner

Search our weather history database for the weather conditions in past years. The results will help you decide how hot, cold, wet, or windy it might be!

Date:

Astronomy

Oct. 27, 2012 Rise Set
Actual Time 7:23 AM PDT 5:46 PM PDT
Civil Twilight 6:53 AM PDT 6:16 PM PDT
Nautical Twilight 6:18 AM PDT 6:50 PM PDT
Astronomical Twilight 5:44 AM PDT 7:24 PM PDT
Moon 4:36 PM PDT (10/27) 5:19 AM PDT (10/27)
Length of Visible Light 11h 23m
Length of Day
10h 22m
Waxing Gibbous, 96% of the Moon is Illuminated
Oct 27
Waxing Gibbous
Oct 29
Full
Nov 6
Last Quarter
Nov 13
New
Nov 20
First Quarter

Hourly Weather History & Observations

Time (PDT) Temp. Windchill Dew Point Humidity Pressure Visibility Wind Dir Wind Speed Gust Speed Precip Events Conditions
12:22 AM 26.6 °F 22.6 °F 24.8 °F 93% 30.16 in 5.0 mi WSW 3.5 mph - N/A   Partly Cloudy
12:27 AM 26.6 °F 22.6 °F 26.6 °F 100% 30.17 in 1.8 mi WSW 3.5 mph - N/A   Scattered Clouds
12:42 AM 28.4 °F 24.6 °F 26.6 °F 93% 30.16 in 0.8 mi SSW 3.5 mph - N/A   Mist
12:53 AM 28.0 °F - 27.0 °F 96% 30.22 in 0.2 mi Calm Calm - N/A Fog Light Freezing Fog
1:00 AM 26.6 °F - 26.6 °F 100% 30.15 in 0.5 mi Calm Calm - N/A Fog Light Freezing Fog
1:06 AM 26.6 °F - 26.6 °F 100% 30.15 in 1.2 mi Calm Calm - N/A   Scattered Clouds
1:15 AM 26.6 °F 21.2 °F 24.8 °F 93% 30.15 in 2.0 mi SE 4.6 mph - N/A   Mostly Cloudy
1:29 AM 24.8 °F - 24.8 °F 100% 30.14 in 6.0 mi Calm Calm - N/A   Mostly Cloudy
1:38 AM 24.8 °F - 24.8 °F 100% 30.14 in 8.0 mi Calm Calm - N/A   Scattered Clouds
1:53 AM 24.1 °F - 21.9 °F 91% 30.22 in 8.0 mi Calm Calm - N/A   Clear
2:46 AM 26.6 °F 21.2 °F 26.6 °F 100% 30.14 in 1.5 mi North 4.6 mph - N/A   Partly Cloudy
2:49 AM 26.6 °F 21.2 °F 26.6 °F 100% 30.14 in 0.8 mi North 4.6 mph - N/A   Mist
2:53 AM 27.0 °F - 26.1 °F 96% 30.20 in 0.5 mi Calm Calm - N/A Fog Light Freezing Fog
3:01 AM 26.6 °F - 26.6 °F 100% 30.14 in 0.2 mi Calm Calm - N/A Fog Light Freezing Fog
3:17 AM 26.6 °F - 26.6 °F 100% 30.13 in 0.5 mi Calm Calm - N/A Fog Light Freezing Fog
3:27 AM 26.6 °F - 26.6 °F 100% 30.13 in 2.0 mi Calm Calm - N/A   Overcast
3:35 AM 28.4 °F - 26.6 °F 93% 30.13 in 3.0 mi Calm Calm - N/A   Overcast
3:38 AM 28.4 °F 24.6 °F 26.6 °F 93% 30.13 in 2.5 mi North 3.5 mph - N/A   Overcast
3:53 AM 27.0 °F - 27.0 °F 100% 30.20 in 0.5 mi Calm Calm - N/A Fog Light Freezing Fog
4:03 AM 26.6 °F - 26.6 °F 100% 30.13 in 0.5 mi Calm Calm - N/A Fog Light Freezing Fog
4:12 AM 28.4 °F - 26.6 °F 93% 30.13 in 0.5 mi Calm Calm - N/A Fog Light Freezing Fog
4:19 AM 28.4 °F - 26.6 °F 93% 30.13 in 2.5 mi Calm Calm - N/A   Mostly Cloudy
4:26 AM 26.6 °F 22.6 °F 26.6 °F 100% 30.12 in 7.0 mi SSE 3.5 mph - N/A   Mostly Cloudy
4:53 AM 28.0 °F 24.2 °F 27.0 °F 96% 30.20 in 7.0 mi South 3.5 mph - N/A   Overcast
5:23 AM 28.4 °F - 28.4 °F 100% 30.12 in 1.8 mi Calm Calm - N/A   Overcast
5:34 AM 28.4 °F - 28.4 °F 100% 30.13 in 2.0 mi Calm Calm - N/A   Overcast
5:53 AM 28.9 °F - 28.0 °F 96% 30.20 in 2.5 mi Calm Calm - N/A   Overcast
6:01 AM 28.4 °F 24.6 °F 28.4 °F 100% 30.14 in 4.0 mi North 3.5 mph - N/A   Overcast
6:53 AM 28.0 °F - 28.0 °F 100% 30.21 in 6.0 mi Calm Calm - N/A   Overcast
7:14 AM 28.4 °F 24.6 °F 28.4 °F 100% 30.14 in 7.0 mi SSW 3.5 mph - N/A   Mostly Cloudy
7:49 AM 26.6 °F - 26.6 °F 100% 30.15 in 5.0 mi Calm Calm - N/A   Mostly Cloudy
7:53 AM 28.0 °F - 27.0 °F 96% 30.22 in 5.0 mi Calm Calm - N/A   Mostly Cloudy
8:34 AM 28.4 °F - 28.4 °F 100% 30.15 in 4.0 mi Calm Calm - N/A   Mostly Cloudy
8:53 AM 30.9 °F 27.5 °F 28.9 °F 92% 30.23 in 4.0 mi NNW 3.5 mph - N/A   Overcast
9:44 AM 32.0 °F - 32.0 °F 100% 30.15 in 5.0 mi Calm Calm - N/A   Overcast
9:53 AM 33.1 °F - 33.1 °F 100% 30.22 in 5.0 mi Calm Calm - N/A   Overcast
10:53 AM 36.0 °F - 32.0 °F 86% 30.24 in 10.0 mi Calm Calm - N/A   Overcast
11:31 AM 35.6 °F 31.7 °F 33.8 °F 93% 30.16 in 7.0 mi East 4.6 mph - 0.00 in Rain Light Rain
11:53 AM 36.0 °F 28.5 °F 33.1 °F 89% 30.22 in 5.0 mi East 10.4 mph - 0.01 in Snow Light Snow
12:12 PM 37.4 °F 29.3 °F 33.8 °F 87% 30.13 in 10.0 mi East 12.7 mph - 0.01 in Rain Light Rain
12:53 PM 39.0 °F 29.9 °F 36.0 °F 89% 30.17 in 10.0 mi ESE 17.3 mph 23.0 mph 0.01 in Rain Light Rain
1:53 PM 39.9 °F 30.5 °F 36.0 °F 86% 30.14 in 10.0 mi East 19.6 mph 24.2 mph 0.00 in   Overcast
2:53 PM 39.9 °F 31.4 °F 36.0 °F 86% 30.12 in 10.0 mi East 16.1 mph - 0.00 in   Overcast
3:37 PM 37.4 °F 28.5 °F 35.6 °F 93% 30.06 in 10.0 mi East 15.0 mph - 0.00 in Rain Light Rain
3:53 PM 39.0 °F 31.0 °F 36.0 °F 89% 30.12 in 9.0 mi East 13.8 mph - 0.00 in Rain Light Rain
4:18 PM 39.2 °F 31.6 °F 35.6 °F 87% 30.06 in 10.0 mi East 12.7 mph - 0.00 in   Overcast
4:32 PM 37.4 °F 29.3 °F 35.6 °F 93% 30.06 in 10.0 mi East 12.7 mph - 0.00 in   Overcast
4:53 PM 37.9 °F 30.0 °F 36.0 °F 93% 30.13 in 8.0 mi East 12.7 mph - 0.00 in Rain Light Rain
5:53 PM 37.9 °F 30.0 °F 36.0 °F 93% 30.13 in 10.0 mi East 12.7 mph - 0.00 in   Overcast
6:53 PM 37.9 °F 32.1 °F 35.1 °F 89% 30.14 in 10.0 mi ESE 8.1 mph - 0.00 in Rain Light Rain
7:53 PM 37.9 °F 32.1 °F 35.1 °F 89% 30.14 in 7.0 mi East 8.1 mph - 0.10 in Rain Light Rain
8:53 PM 37.4 °F 30.3 °F 35.6 °F 93% 30.07 in 10.0 mi East 10.4 mph - N/A Rain Light Rain
9:44 PM 37.4 °F 32.8 °F 35.6 °F 93% 30.07 in 10.0 mi ESE 5.8 mph - 0.02 in Rain Light Rain
9:53 PM 37.9 °F 33.5 °F 36.0 °F 93% 30.13 in 10.0 mi ESE 5.8 mph - 0.02 in Rain Light Rain
10:53 PM 37.9 °F - 37.0 °F 97% 30.12 in 10.0 mi Calm Calm - 0.01 in Rain Light Rain
11:53 PM 37.9 °F 34.4 °F 37.0 °F 97% 30.12 in 10.0 mi SSE 4.6 mph - 0.01 in Rain Light Rain